Location: Votelez
(50.0000°N, 15.0000°E)
Time: 11:10:35
(UTC+01:00)

ISS - Pass Details

Date: 23 February 2026
Orbit: 416 x 426 km, 51.6° (Epoch: 10 March)

Event Time Altitude Azimuth Distance (km) Brightness Sun altitude
Exits shadow 04:16:06 27° 72° (ENE) 830 -1.6 -26.2°
Drops below altitude 10° 04:17:48 10° 74° (ENE) 1,496 0.1 -25.9°
Sets 04:19:53 0° 76° (ENE) 2,359 1.4 -25.6°
